Regional Weather Roundup
Issued by NWS Charleston, SC

Current Version | Previous Version | Graphics & Text | Print | Product List | Glossary On
Versions: 1 2 3 4 5 6 7 8 9 10 11 12 13 14 15 16 17 18 19 20 21 22 23 24 25 26 27 28 29 30 31 32 33 34 35 36 37 38 39 40 41 42 43 44 45 46 47 48 49 50
000
ASUS42 KCHS 030927
RWRCHS

REGIONAL WEATHER ROUNDUP
NATIONAL WEATHER SERVICE CHARLESTON SC
500 AM EDT THU SEP 03 2015

NOTE: "FAIR" INDICATES FEW OR NO CLOUDS BELOW 12,000 FEET WITH NO
SIGNIFICANT WEATHER AND/OR OBSTRUCTIONS TO VISIBILITY.

NOT ALL STATIONS ARE QUALITY CONTROLLED BY THE NATIONAL
WEATHER SERVICE. USE DATA WITH CAUTION...ESPECIALLY
DEWPOINT OBSERVATIONS.

SCZ027-030-031-034>040-042>050-031000-
...SOUTHEAST SOUTH CAROLINA...

CITY           SKY/WX    TMP DP  RH WIND       PRES   REMARKS
N CHARLESTON   PTCLDY    74  72  93 N3        29.95S
WATERFRONT PRK   N/A     79  74  85 CALM      29.92F
MOUNT PLEASANT FAIR      73  73 100 CALM      29.95S FOG
JOHNS ISLAND   FAIR      75  73  94 CALM      29.95S
PINOPOLIS        N/A     79  73  83 W5        29.86F
MONCKS CORNER  FAIR      73  72  94 CALM      29.95S
SUMMERVILLE    PTSUNNY   72  72 100 CALM      29.96F
BEAUFORT MCAS  MOCLDY    76  73  91 N6        29.94F
BEAUFORT ARPT  FAIR      77  75  94 N3        29.93F
HILTON HEAD IS MOCLDY    79  79 100 N7        29.94F
WALTERBORO     MOSUNNY   73  72  94 CALM      29.96S
ALLENDALE      FAIR      72  72 100 CALM      29.94F

...SOUTHERN MIDLANDS AND PEE DEE...

CITY           SKY/WX    TMP DP  RH WIND       PRES   REMARKS
GEORGETOWN     NOT AVBL
KINGSTREE      NOT AVBL
ORANGEBURG     PTCLDY    73  71  93 CALM      29.96S
BARNWELL       FAIR      73  73 100 CALM      29.96F
AIKEN          FAIR      70  70 100 CALM      29.99S
MANNING        FAIR      70  70 100 CALM      29.95S
COLUMBIA       MOCLDY    75  71  87 CALM      29.94S
SUMTER         MOCLDY    76  72  86 VRB2      29.93S
FLORENCE       MOCLDY    76  73  91 CALM      29.93F
MYRTLE BEACH   PTCLDY    75  70  83 NW3       29.95F
N MYRTLE BEACH PTCLDY    75  73  93 W3        29.94S

$$

GAZ063-065-086>088-099>101-113>116-118-119-134>141-150-031000-
...SOUTHEAST GEORGIA...

CITY           SKY/WX    TMP DP  RH WIND       PRES   REMARKS
SAVANNAH ARPT  PTCLDY    75  72  90 N3        29.93F
HUNTER AAF     MOCLDY    76  76 100 E2        29.91F
FORT STEWART   CLOUDY    74  73  94 CALM      29.92S
STATESBORO     PTCLDY    72  32  23 CALM      29.95S
SYLVANIA       NOT AVBL
CLAXTON        NOT AVBL

...CSRA...CENTRAL AND FAR SOUTHEAST GEORGIA...

CITY           SKY/WX    TMP DP  RH WIND       PRES   REMARKS
THOMSON        MOCLDY    74  74 100 CALM      30.01R
AUGUSTA-BUSH   MOCLDY    72  72 100 CALM      29.95S FOG
AUGUSTA-DANIEL MOCLDY    76  71  85 CALM      29.96F
SWAINSBORO     FAIR      72  70  94 CALM      29.97S
VIDALIA        PTCLDY    72  72 100 CALM      29.96S
EASTMAN        FOG       73  73 100 CALM      30.00R VSB 1/2
HAZLEHURST     FOG       73  73 100 W3        29.96R VSB 1/2
ALMA           FOG       73  72  96 NW3       29.96R VSB 1/2
WAYCROSS       CLOUDY    76  76 100 NW6       29.92R
JESUP          CLOUDY    77  77 100 NW5       29.94S FOG
BAXLEY         CLOUDY    75  73  94 CALM      29.95S FOG
BRUNSWICK      CLOUDY    72  72 100 CALM      29.93S THUNDER
SAINT SIMONS   CLOUDY    74  74 100 W7        29.92S

$$

SCZ027-028-034-036>038-045-046-048>050-GAZ119-141-031000-
...LAKE AND SUPPLEMENTAL COASTAL OBSERVATIONS...

STATION/POSITION TIME  TEMP    WIND        PRES    WAVE   SWELL
                       AIR SEA DIR/SP/G            HT/PER HT/PER/DIR
                 (UTC) (F)     (DEG/KT/KT) (MB)    (FT/S) (FT/S/D)
UPR LAKE MARION  NOT AVBL
WINYAH BAY       0845   76     280/  3     1013.0S
LAKE MURRAY      0800   78     280/  4/  5 1013.9S
ACE BASIN NERRS  NOT AVBL
FORT PULASKI     0900   78 83   CALM  /  1 1013.9F
SAPELO ISLAND    0900   77     300/  4     1013.0S

$$

ANZ835-935-AMZ111-154-330-350-352-354-370-450-454-472-031000-
...C-MAN AND BUOY OBSERVATIONS...

STATION/POSITION TIME  TEMP    WIND        PRES    WAVE   SWELL
                       AIR SEA DIR/SP/G            HT/PER HT/PER/DIR
                 (UTC) (F)     (DEG/KT/KT) (MB)    (FT/S) (FT/S/D)
BUOY 41004       0850   82 84  310/  2/  4 1013.7F   2/ 9   2/ 9
BUOY 41008       0850   79 84   80/ 10/ 12 1013.2F   2/ 9   2/110/ 9
FOLLY BEACH CMAN 0900   77     280/  2/  3 1014.2F
CAPERS NEARSHORE 0808   81     270/  4/  6 1014.4F
FRIPP NEARSHORE  0800   81     210/  2/  2 1013.7F


STATION/POSITION TIME  TEMP    WIND        PRES    WAVE   SWELL
                       AIR SEA DIR/SP/G            HT/PER HT/PER/DIR
                 (UTC) (F)     (DEG/KT/KT) (MB)    (FT/S) (FT/S/D)
5E ST. MARYS GA  0821      84                N/A     2/10
FRYING PAN BUOY  0850   82 81  270/  8/  8 1014.1F   2/ 9   2/130/ 9
BUOY 41025       0850   81 85  310/  6/  8 1012.8F   2/13   2/190/13
CAPE LOOKOUT NC  0900   75     300/ 11/ 13 1013.4R
BUOY 41002       0850   82 83  310/  8/ 10 1013.4F   2/13   2/ 50/13
BUOY 41010       0820   84 86  190/  6/  8 1014.5F
ST AUGUSTINE FL  0900   76 82  230/  3/  4 1014.8S


$$


USA.gov is the U.S. government's official web portal to all federal, state and local government web resources and services.